Radiation Dose at Monitoring Post of Fukushima Daini Nuclear Power Station
Date,Time,MP-1(microSv/h),MP-2(microSv/h),MP-3(microSv/h),MP-4(microSv/h),MP-5(microSv/h),MP-6(microSv/h),MP-7(microSv/h),Wind Direction,Wind Velocity(m/s),Rain
2013/10/22,00:00,0.8,0.5,0.8,0.8,0.7,0.4,0.3,north,2.3,No
2013/10/22,00:10,0.8,0.5,0.8,0.8,0.7,0.4,0.3,northeast,2.5,No
2013/10/22,00:20,0.8,0.5,0.8,0.8,0.7,0.3,0.3,north,2.8,No
2013/10/22,00:30,0.8,0.5,0.8,0.8,0.7,0.4,0.3,north-northwest,3.3,No
2013/10/22,00:40,0.8,0.5,0.8,0.8,0.7,0.4,0.3,north-northwest,3.9,No
2013/10/22,00:50,0.8,0.5,0.8,0.8,0.7,0.4,0.3,north-northwest,3.7,No
2013/10/22,01:00,0.8,0.5,0.8,0.8,0.7,0.4,0.3,north-northwest,4.2,No
2013/10/22,01:10,0.8,0.5,0.8,0.8,0.7,0.4,0.3,north-northwest,4.7,No
2013/10/22,01:20,0.8,0.5,0.8,0.8,0.7,0.3,0.3,north-northwest,3.9,No
2013/10/22,01:30,0.8,0.5,0.8,0.8,0.7,0.4,0.3,north,3.8,No
2013/10/22,01:40,0.8,0.5,0.8,0.8,0.7,0.4,0.3,north,4.1,No
2013/10/22,01:50,0.8,0.5,0.8,0.8,0.7,0.4,0.3,north-northwest,2.1,Yes
2013/10/22,02:00,0.8,0.5,0.8,0.8,0.7,0.4,0.3,north-northwest,3.7,No
2013/10/22,02:10,0.8,0.5,0.8,0.8,0.7,0.4,0.3,north-northwest,5.1,Yes
2013/10/22,02:20,0.8,0.5,0.8,0.8,0.7,0.4,0.3,north,5.5,No
2013/10/22,02:30,0.8,0.5,0.8,0.8,0.7,0.4,0.3,north-northwest,5.1,Yes
2013/10/22,02:40,0.8,0.5,0.8,0.8,0.7,0.3,0.3,north-northwest,5.5,Yes
2013/10/22,02:50,0.8,0.5,0.8,0.8,0.7,0.4,0.3,north-northwest,5.5,Yes
2013/10/22,03:00,0.8,0.5,0.8,0.8,0.7,0.4,0.3,north-northwest,5.6,Yes
2013/10/22,03:10,0.8,0.5,0.8,0.8,0.7,0.4,0.3,north-northwest,4.9,Yes
2013/10/22,03:20,0.8,0.5,0.8,0.8,0.7,0.4,0.3,north-northwest,5.4,Yes
2013/10/22,03:30,0.8,0.5,0.8,0.8,0.7,0.4,0.3,north-northwest,6.1,Yes
2013/10/22,03:40,0.8,0.5,0.8,0.8,0.7,0.4,0.3,north-northwest,5.3,Yes
2013/10/22,03:50,0.8,0.5,0.8,0.8,0.7,0.4,0.3,north,4.8,Yes
2013/10/22,04:00,0.8,0.5,0.8,0.8,0.7,0.3,0.3,north-northeast,5.3,Yes
2013/10/22,04:10,0.8,0.5,0.8,0.8,0.7,0.4,0.3,north,4.5,Yes
2013/10/22,04:20,0.8,0.5,0.8,0.8,0.7,0.4,0.3,north-northwest,4.5,Yes
2013/10/22,04:30,0.8,0.5,0.8,0.8,0.7,0.3,0.3,north-northwest,5.3,Yes
2013/10/22,04:40,0.8,0.5,0.8,0.8,0.7,0.3,0.3,north-northwest,5.8,Yes
2013/10/22,04:50,0.8,0.5,0.8,0.8,0.7,0.4,0.3,north-northwest,6.1,Yes
2013/10/22,05:00,0.8,0.5,0.8,0.8,0.7,0.3,0.3,north,5.6,Yes
2013/10/22,05:10,0.8,0.5,0.8,0.8,0.7,0.3,0.3,north,4.7,Yes
2013/10/22,05:20,0.8,0.5,0.8,0.8,0.7,0.3,0.3,north,3.9,No
2013/10/22,05:30,0.8,0.5,0.8,0.8,0.7,0.3,0.3,north-northwest,4.9,Yes
2013/10/22,05:40,0.8,0.5,0.8,0.8,0.7,0.3,0.3,north-northwest,5.6,Yes
2013/10/22,05:50,0.8,0.5,0.8,0.8,0.7,0.3,0.3,north-northwest,5.9,Yes
2013/10/22,06:00,0.8,0.5,0.8,0.8,0.7,0.3,0.3,north-northwest,5.5,Yes
2013/10/22,06:10,0.8,0.5,0.8,0.8,0.7,0.3,0.3,north-northwest,5.7,Yes
2013/10/22,06:20,0.8,0.5,0.8,0.8,0.7,0.3,0.3,north,5.1,Yes
2013/10/22,06:30,0.8,0.5,0.8,0.8,0.7,0.3,0.3,north,5.1,Yes
2013/10/22,06:40,0.8,0.5,0.8,0.8,0.7,0.3,0.3,north,5.5,Yes
2013/10/22,06:50,0.8,0.5,0.8,0.8,0.7,0.3,0.3,north,4.3,Yes
2013/10/22,07:00,0.8,0.5,0.8,0.8,0.7,0.3,0.3,north-northwest,4.6,No
2013/10/22,07:10,0.8,0.5,0.8,0.8,0.7,0.3,0.3,north-northwest,4.5,Yes
2013/10/22,07:20,0.8,0.5,0.8,0.8,0.7,0.3,0.3,north,4.0,Yes
2013/10/22,07:30,0.8,0.5,0.8,0.8,0.7,0.3,0.3,north-northwest,4.1,Yes
2013/10/22,07:40,0.8,0.5,0.8,0.8,0.7,0.3,0.3,north-northwest,3.3,Yes
2013/10/22,07:50,0.8,0.5,0.8,0.8,0.7,0.3,0.3,north-northwest,4.2,Yes
2013/10/22,08:00,0.8,0.5,0.8,0.8,0.7,0.3,0.3,north,4.6,Yes
2013/10/22,08:10,0.8,0.5,0.8,0.8,0.7,0.3,0.3,north-northwest,4.5,Yes
2013/10/22,08:20,0.8,0.5,0.8,0.8,0.7,0.3,0.3,north-northwest,4.5,Yes
2013/10/22,08:30,0.8,0.5,0.8,0.8,0.7,0.3,0.3,north-northwest,4.3,No
2013/10/22,08:40,0.8,0.5,0.8,0.8,0.7,0.3,0.3,north-northwest,3.6,Yes
2013/10/22,08:50,0.8,0.5,0.8,0.8,0.7,0.3,0.3,north,3.0,Yes
2013/10/22,09:00,0.8,0.5,0.8,0.8,0.7,0.3,0.3,north-northwest,3.6,Yes
2013/10/22,09:10,0.8,0.5,0.8,0.8,0.7,0.3,0.3,north,3.8,Yes
2013/10/22,09:20,0.8,0.5,0.8,0.8,0.7,0.3,0.3,north,3.8,Yes
2013/10/22,09:30,0.8,0.5,0.8,0.8,0.7,0.3,0.3,north,4.7,Yes
2013/10/22,09:40,0.8,0.5,0.8,0.8,0.7,0.3,0.3,north-northeast,3.1,Yes
2013/10/22,09:50,0.8,0.5,0.8,0.8,0.7,0.3,0.3,northeast,3.8,Yes
2013/10/22,10:00,0.8,0.5,0.8,0.8,0.7,0.3,0.3,northeast,2.5,Yes
2013/10/22,10:10,0.8,0.5,0.8,0.8,0.7,0.3,0.3,northeast,3.3,Yes
2013/10/22,10:20,0.8,0.5,0.8,0.8,0.7,0.3,0.3,north-northeast,3.9,Yes
2013/10/22,10:30,0.8,0.5,0.8,0.8,0.7,0.3,0.3,northeast,1.8,Yes
2013/10/22,10:40,0.8,0.5,0.8,0.8,0.7,0.3,0.3,northeast,5.0,Yes
2013/10/22,10:50,0.8,0.5,0.8,0.8,0.7,0.3,0.3,northeast,2.7,Yes
2013/10/22,11:00,0.8,0.5,0.8,0.7,0.7,0.3,0.3,northeast,3.6,Yes
2013/10/22,11:10,0.8,0.5,0.8,0.7,0.7,0.3,0.3,northeast,4.5,Yes
2013/10/22,11:20,0.8,0.5,0.8,0.7,0.7,0.3,0.3,northeast,3.8,Yes
2013/10/22,11:30,0.8,0.5,0.8,0.7,0.7,0.3,0.3,northeast,4.7,Yes
2013/10/22,11:40,0.8,0.5,0.8,0.7,0.7,0.3,0.3,northeast,4.4,Yes
2013/10/22,11:50,0.8,0.5,0.8,0.7,0.7,0.3,0.3,northeast,4.0,Yes
2013/10/22,12:00,0.8,0.5,0.8,0.7,0.7,0.3,0.3,north-northeast,4.4,Yes
2013/10/22,12:10,0.8,0.5,0.8,0.7,0.7,0.3,0.3,northeast,4.7,Yes
2013/10/22,12:20,0.8,0.5,0.8,0.7,0.7,0.3,0.3,north-northeast,5.3,Yes
2013/10/22,12:30,0.8,0.5,0.8,0.7,0.7,0.3,0.3,northeast,5.3,Yes
2013/10/22,12:40,0.8,0.5,0.8,0.7,0.7,0.3,0.3,north-northeast,5.1,Yes
2013/10/22,12:50,0.8,0.5,0.8,0.7,0.7,0.3,0.3,north-northeast,5.2,Yes
2013/10/22,13:00,0.8,0.5,0.8,0.7,0.7,0.3,0.3,north-northeast,3.1,Yes
2013/10/22,13:10,0.8,0.5,0.8,0.7,0.7,0.3,0.3,north-northeast,3.9,Yes
2013/10/22,13:20,0.8,0.5,0.8,0.7,0.7,0.3,0.3,north-northeast,4.0,Yes
2013/10/22,13:30,0.8,0.5,0.8,0.7,0.7,0.3,0.3,northeast,4.9,Yes
2013/10/22,13:40,0.8,0.5,0.8,0.7,0.7,0.3,0.3,northeast,4.8,Yes
2013/10/22,13:50,0.8,0.5,0.8,0.7,0.7,0.3,0.3,north-northeast,3.1,Yes
2013/10/22,14:00,0.8,0.5,0.8,0.7,0.7,0.3,0.3,north-northeast,3.9,Yes
2013/10/22,14:10,0.8,0.5,0.8,0.7,0.7,0.3,0.3,north,5.3,Yes
2013/10/22,14:20,0.8,0.5,0.8,0.7,0.7,0.3,0.3,north,4.5,No
2013/10/22,14:30,0.8,0.5,0.8,0.7,0.7,0.3,0.3,north,4.8,Yes
2013/10/22,14:40,0.8,0.5,0.8,0.7,0.7,0.3,0.3,north-northeast,3.8,Yes
2013/10/22,14:50,0.8,0.5,0.8,0.7,0.7,0.3,0.3,north,4.5,Yes
2013/10/22,15:00,0.8,0.5,0.8,0.7,0.7,0.3,0.3,north,3.8,Yes
2013/10/22,15:10,0.8,0.5,0.8,0.7,0.7,0.3,0.3,north,4.5,Yes
2013/10/22,15:20,0.8,0.5,0.8,0.7,0.7,0.3,0.3,north,4.7,Yes
2013/10/22,15:30,0.8,0.5,0.8,0.7,0.7,0.3,0.3,north-northwest,3.6,Yes
2013/10/22,15:40,0.8,0.5,0.8,0.7,0.7,0.3,0.3,north,3.3,Yes
2013/10/22,15:50,0.8,0.5,0.8,0.7,0.7,0.3,0.3,north-northwest,3.2,Yes
2013/10/22,16:00,0.8,0.5,0.8,0.7,0.7,0.3,0.3,north-northwest,4.2,Yes
2013/10/22,16:10,0.8,0.5,0.8,0.7,0.7,0.3,0.3,north-northwest,4.5,Yes
2013/10/22,16:20,0.8,0.5,0.8,0.7,0.7,0.3,0.3,north-northwest,4.7,Yes
2013/10/22,16:30,0.8,0.5,0.8,0.7,0.7,0.3,0.3,north-northwest,4.8,Yes
2013/10/22,16:40,0.8,0.5,0.8,0.7,0.7,0.3,0.3,north,6.1,Yes
2013/10/22,16:50,0.8,0.5,0.8,0.7,0.7,0.3,0.3,north-northwest,6.0,Yes
2013/10/22,17:00,0.8,0.5,0.8,0.7,0.7,0.3,0.3,north-northwest,6.2,Yes
2013/10/22,17:10,0.8,0.5,0.8,0.7,0.7,0.3,0.3,north-northwest,5.9,Yes
2013/10/22,17:20,0.8,0.5,0.8,0.7,0.7,0.3,0.3,north-northwest,6.3,Yes
2013/10/22,17:30,0.8,0.5,0.8,0.7,0.7,0.3,0.3,north-northwest,5.5,Yes
2013/10/22,17:40,0.8,0.5,0.8,0.7,0.7,0.3,0.3,north-northwest,6.3,Yes
2013/10/22,17:50,0.8,0.5,0.8,0.7,0.7,0.3,0.3,north-northwest,5.0,Yes
2013/10/22,18:00,0.8,0.5,0.8,0.7,0.7,0.3,0.3,north-northwest,4.9,Yes
2013/10/22,18:10,0.8,0.5,0.8,0.7,0.7,0.3,0.3,north-northwest,5.6,Yes
2013/10/22,18:20,0.8,0.5,0.8,0.7,0.7,0.3,0.3,north-northwest,5.4,Yes
2013/10/22,18:30,0.8,0.5,0.8,0.7,0.7,0.3,0.3,northwest,3.5,Yes
2013/10/22,18:40,0.8,0.5,0.8,0.7,0.7,0.3,0.3,north-northwest,4.9,Yes
2013/10/22,18:50,0.8,0.5,0.8,0.7,0.7,0.3,0.3,north-northwest,3.9,Yes
2013/10/22,19:00,0.8,0.5,0.8,0.7,0.7,0.3,0.3,north-northwest,4.0,Yes
2013/10/22,19:10,0.8,0.5,0.8,0.7,0.7,0.3,0.3,north-northwest,5.0,Yes
2013/10/22,19:20,0.8,0.5,0.8,0.7,0.7,0.3,0.3,north-northwest,3.8,Yes
2013/10/22,19:30,0.8,0.5,0.8,0.7,0.7,0.3,0.3,north-northwest,4.8,Yes
2013/10/22,19:40,0.8,0.5,0.8,0.7,0.7,0.3,0.3,north-northwest,4.3,Yes
2013/10/22,19:50,0.8,0.5,0.8,0.7,0.7,0.3,0.3,northwest,3.3,Yes
2013/10/22,20:00,0.8,0.5,0.8,0.7,0.7,0.3,0.3,north-northwest,5.0,Yes
2013/10/22,20:10,0.8,0.5,0.8,0.7,0.7,0.3,0.3,north,6.4,Yes
2013/10/22,20:20,0.8,0.5,0.8,0.7,0.7,0.3,0.3,north,2.5,Yes
2013/10/22,20:30,0.8,0.5,0.8,0.7,0.7,0.3,0.3,northeast,1.4,Yes
2013/10/22,20:40,0.8,0.5,0.8,0.7,0.7,0.3,0.3,east,6.1,Yes
2013/10/22,20:50,0.8,0.5,0.8,0.7,0.7,0.3,0.3,east-northeast,9.5,Yes
2013/10/22,21:00,0.8,0.5,0.8,0.7,0.7,0.3,0.3,east,5.9,Yes
2013/10/22,21:10,0.8,0.5,0.8,0.7,0.7,0.3,0.3,east-northeast,6.4,Yes
2013/10/22,21:20,0.8,0.5,0.8,0.7,0.7,0.3,0.3,east-northeast,6.4,Yes
2013/10/22,21:30,0.8,0.5,0.8,0.7,0.7,0.3,0.3,east-northeast,8.3,Yes
2013/10/22,21:40,0.8,0.5,0.8,0.7,0.7,0.3,0.3,east-northeast,9.2,Yes
2013/10/22,21:50,0.8,0.5,0.8,0.7,0.7,0.3,0.3,northeast,7.4,Yes
2013/10/22,22:00,0.8,0.5,0.8,0.7,0.7,0.3,0.3,east-northeast,7.0,Yes
2013/10/22,22:10,0.8,0.5,0.8,0.7,0.7,0.3,0.3,east-northeast,5.6,Yes
2013/10/22,22:20,0.8,0.5,0.8,0.7,0.7,0.3,0.3,northeast,7.5,Yes
2013/10/22,22:30,0.8,0.5,0.8,0.7,0.7,0.3,0.3,northeast,8.6,Yes
2013/10/22,22:40,0.8,0.5,0.8,0.7,0.7,0.3,0.3,northeast,5.8,Yes
2013/10/22,22:50,0.8,0.5,0.8,0.7,0.7,0.3,0.3,east-northeast,4.9,Yes
2013/10/22,23:00,0.8,0.5,0.8,0.7,0.7,0.3,0.3,east-northeast,5.5,Yes
2013/10/22,23:10,0.8,0.5,0.8,0.7,0.7,0.3,0.3,east-northeast,5.9,Yes
2013/10/22,23:20,0.8,0.5,0.8,0.7,0.7,0.3,0.3,east-northeast,4.7,Yes
2013/10/22,23:30,0.8,0.5,0.8,0.7,0.7,0.3,0.3,northeast,5.0,Yes
2013/10/22,23:40,0.8,0.5,0.8,0.7,0.7,0.3,0.3,northeast,4.1,No
2013/10/22,23:50,0.8,0.5,0.8,0.7,0.7,0.3,0.3,northeast,4.0,Yes
